EW7861 Weather Reports


Display with metric or nautical units.
time (UTC)temp
F
wind
direction
speed
MPH
gust
MPH
rain 1hr
in
rain 24hr
in
rain mn
in
humidity
%
barometer
mb
20260507003134 60 293 8.0 14.0 0.00 0.00 0.00 74
20260507002134 60 270 6.0 9.0 0.00 0.00 0.00 75
20260507001135 60 293 6.0 9.0 0.00 0.00 0.00 74
20260507000154 60 270 6.0 12.0 0.00 0.00 0.00 74
20260506235135 60 293 7.0 12.0 0.00 0.00 0.00 75
20260506234154 60 293 6.0 12.0 0.00 0.00 0.00 74
20260506233134 60 293 7.0 12.0 0.00 0.00 0.00 74
20260506232134 60 293 8.0 13.0 0.00 0.00 0.00 73
20260506231135 61 270 8.0 14.0 0.00 0.00 0.00 72
20260506230134 61 293 7.0 12.0 0.00 0.00 0.00 72
20260506225215 61 293 8.0 13.0 0.00 0.00 0.00 72
20260506224135 62 293 7.0 12.0 0.00 0.00 0.00 71
20260506223134 62 293 7.0 14.0 0.00 0.00 0.00 71
20260506222135 62 293 7.0 12.0 0.00 0.00 0.00 70
20260506221134 63 270 5.0 11.0 0.00 0.00 0.00 69
20260506220154 63 293 6.0 11.0 0.00 0.00 0.00 69
20260506215134 63 293 6.0 12.0 0.00 0.00 0.00 69
20260506214155 63 270 6.0 12.0 0.00 0.00 0.00 68
20260506213135 63 293 6.0 13.0 0.00 0.00 0.00 69
20260506212135 64 270 6.0 12.0 0.00 0.00 0.00 67
20260506211135 64 293 7.0 13.0 0.00 0.00 0.00 67
20260506210134 64 293 7.0 13.0 0.00 0.00 0.00 66
20260506205135 65 293 6.0 10.0 0.00 0.00 0.00 65
20260506204135 65 270 6.0 11.0 0.00 0.00 0.00 64
20260506203155 64 293 5.0 11.0 0.00 0.00 0.00 65
20260506202134 63 270 7.0 11.0 0.00 0.00 0.00 66
20260506201135 64 315 7.0 12.0 0.00 0.00 0.00 66
20260506200135 64 293 6.0 12.0 0.00 0.00 0.00 66
20260506195155 64 225 4.0 9.0 0.00 0.00 0.00 67
20260506194135 64 270 3.0 7.0 0.00 0.00 0.00 68
20260506193135 64 270 1.0 5.0 0.00 0.00 0.00 70
20260506192134 62 270 1.0 5.0 0.00 0.00 0.00 72
20260506191134 61 270 3.0 6.0 0.00 0.00 0.00 74
20260506190134 61 270 3.0 6.0 0.00 0.00 0.00 75
20260506185135 61 293 2.0 5.0 0.00 0.00 0.00 75
20260506184135 60 248 2.0 5.0 0.00 0.00 0.00 76
20260506183155 60 248 3.0 6.0 0.00 0.00 0.00 78
20260506182135 59 315 3.0 7.0 0.00 0.00 0.00 79
20260506181135 59 248 4.0 6.0 0.00 0.00 0.00 78
20260506180135 59 270 4.0 8.0 0.00 0.00 0.00 77
20260506175135 59 248 3.0 6.0 0.00 0.00 0.00 77
20260506174135 60 270 1.0 5.0 0.00 0.00 0.00 77
20260506173135 59 270 2.0 4.0 0.00 0.00 0.00 77
20260506172135 59 270 2.0 4.0 0.00 0.00 0.00 78
20260506171134 59 270 2.0 5.0 0.00 0.00 0.00 78
20260506170135 59 270 3.0 9.0 0.00 0.00 0.00 78
20260506165135 58 0.0 4.0 0.00 0.00 0.00 79
20260506164135 58 293 1.0 5.0 0.00 0.00 0.00 79
20260506163134 58 293 2.0 5.0 0.00 0.00 0.00 79
20260506162134 57 0.0 3.0 0.00 0.00 0.00 80
20260506161135 57 293 1.0 5.0 0.00 0.00 0.00 79
20260506160155 57 293 2.0 6.0 0.00 0.00 0.00 80
20260506155135 57 293 2.0 6.0 0.00 0.00 0.00 79
20260506154214 57 315 4.0 7.0 0.00 0.00 0.00 80
20260506153135 57 315 2.0 6.0 0.00 0.00 0.00 80
20260506152135 57 315 2.0 6.0 0.00 0.00 0.00 81
20260506151155 56 0.0 3.0 0.00 0.00 0.00 81
20260506150134 56 315 2.0 5.0 0.00 0.00 0.00 81
20260506145135 56 315 2.0 7.0 0.00 0.00 0.00 82
20260506144135 56 315 2.0 5.0 0.00 0.00 0.00 83
20260506143155 55 315 4.0 7.0 0.00 0.00 0.00 84
20260506142134 55 293 4.0 9.0 0.00 0.00 0.00 84
20260506141135 55 270 4.0 8.0 0.00 0.00 0.00 84
20260506140135 55 293 4.0 7.0 0.00 0.00 0.00 84
20260506135135 55 293 4.0 7.0 0.00 0.00 0.00 85
20260506134155 55 293 3.0 4.0 0.00 0.00 0.00 85
20260506133135 55 293 2.0 6.0 0.00 0.00 0.00 85
20260506132134 55 293 4.0 7.0 0.00 0.00 0.00 85
20260506131155 55 293 3.0 5.0 0.00 0.00 0.00 85
20260506130135 55 293 3.0 6.0 0.00 0.00 0.00 85
20260506125134 55 293 4.0 6.0 0.00 0.00 0.00 85
20260506124134 55 293 2.0 4.0 0.00 0.00 0.00 86
20260506123135 55 293 2.0 5.0 0.00 0.00 0.00 86
20260506122135 55 293 3.0 7.0 0.00 0.00 0.00 86
20260506121135 55 293 2.0 5.0 0.00 0.00 0.00 86
20260506120135 55 293 3.0 6.0 0.00 0.00 0.00 86
20260506115135 55 293 3.0 6.0 0.00 0.00 0.00 86
20260506114135 55 293 3.0 6.0 0.00 0.00 0.00 86
20260506113135 55 293 5.0 7.0 0.00 0.00 0.00 86
20260506112135 55 293 4.0 7.0 0.00 0.00 0.00 86
20260506111135 56 315 6.0 8.0 0.00 0.00 0.00 86
20260506110135 0 0.0 0.0 0.00 0.00 0.00
20260506105135 0 0.0 0.0 0.00 0.00 0.00
20260506104135 0 0.0 0.0 0.00 0.00 0.00
20260506103135 0 0.0 0.0 0.00 0.00 0.00
20260506102135 56 273 6.0 0.0 0.00 0.00 0.00 85
20260506101135 56 293 5.0 8.0 0.00 0.00 0.00 85
20260506100159 56 293 4.0 8.0 0.00 0.00 0.00 85
20260506095135 56 293 3.0 7.0 0.00 0.00 0.00 85
20260506094139 56 270 4.0 8.0 0.00 0.00 0.00 84
20260506093156 57 270 3.0 5.0 0.00 0.00 0.00 84
20260506092135 57 270 3.0 7.0 0.00 0.00 0.00 84
20260506091136 57 270 2.0 5.0 0.00 0.00 0.00 84
20260506090136 57 270 2.0 5.0 0.00 0.00 0.00 84
20260506085135 57 270 1.0 5.0 0.00 0.00 0.00 84
20260506084135 57 270 3.0 6.0 0.00 0.00 0.00 84
20260506083135 57 270 2.0 5.0 0.00 0.00 0.00 83
20260506082135 57 270 2.0 5.0 0.00 0.00 0.00 83
20260506081155 57 270 2.0 7.0 0.00 0.00 0.00 83
20260506080135 57 270 1.0 5.0 0.00 0.00 0.00 83
20260506073139 57 270 3.0 6.0 0.00 0.00 0.00 83
20260506072135 57 270 2.0 5.0 0.00 0.00 0.00 83
20260506071139 57 270 1.0 5.0 0.00 0.00 0.00 83
20260506070135 57 270 2.0 4.0 0.00 0.00 0.00 83
20260506062135 58 270 3.0 6.0 0.00 0.00 0.00 82
20260506061135 58 270 2.0 6.0 0.00 0.00 0.00 82
20260506060135 58 270 3.0 5.0 0.00 0.00 0.00 82
20260506051135 58 315 1.0 5.0 0.00 0.00 0.00 82
20260506050135 58 315 2.0 6.0 0.00 0.00 0.00 82
20260506044134 59 315 2.0 5.0 0.00 0.00 0.00 80
20260506043135 59 315 3.0 7.0 0.00 0.00 0.00 80
20260506042138 59 315 4.0 7.0 0.00 0.00 0.00 79
20260506041138 60 315 3.0 6.0 0.00 0.00 0.00 78
20260506040135 60 338 3.0 8.0 0.00 0.00 0.00 77
20260506035135 61 293 3.0 6.0 0.00 0.00 0.00 77
20260506034135 61 248 3.0 9.0 0.00 0.00 0.00 75
20260506033135 62 315 2.0 7.0 0.00 0.00 0.00 74
20260506032155 63 293 2.0 7.0 0.00 0.00 0.00 73
20260506031135 63 270 3.0 7.0 0.00 0.00 0.00 72
20260506030135 64 270 3.0 7.0 0.00 0.00 0.00 71
20260506025155 64 270 4.0 8.0 0.00 0.00 0.00 70
20260506024135 65 248 4.0 8.0 0.00 0.00 0.00 69
20260506023135 66 270 4.0 8.0 0.00 0.00 0.00 68
20260506022215 66 270 3.0 12.0 0.00 0.00 0.00 67
20260506021159 67 270 5.0 12.0 0.00 0.00 0.00 66
20260506020135 68 293 4.0 7.0 0.00 0.00 0.00 65
20260506015135 68 293 4.0 8.0 0.00 0.00 0.00 64
20260506014135 68 293 3.0 8.0 0.00 0.00 0.00 64
20260506013215 68 270 4.0 8.0 0.00 0.00 0.00 63
20260506012158 68 270 3.0 7.0 0.00 0.00 0.00 63
20260506011135 68 270 3.0 8.0 0.00 0.00 0.00 63
20260506010136 68 270 3.0 7.0 0.00 0.00 0.00 62
20260506005135 67 293 5.0 8.0 0.00 0.00 0.00 63
20260506004135 68 248 4.0 8.0 0.00 0.00 0.00 63